Location: St. Louis
(38.6270°N, 90.1994°W)
Time: 07:48:24
(UTC-05:00)

ISS - Pass Details

Date: 11 November 2017
Orbit: 411 x 421 km, 51.6° (Epoch: 14 October)

Event Time Altitude Azimuth Distance (km) Brightness Sun altitude
Exits shadow 04:29:59 13° 31° (NNE) 1,315 -1.0 -25.3°
Drops below altitude 10° 04:31:06 10° 50° (NE) 1,482 -0.4 -25.1°
Enters shadow 05:27:30 -72° 290° (WNW) 12,571 3.7 -14.2°
Maximum altitude 06:06:44 59° 37° (NE) 483 -3.3 -6.7°
